Wind_Speed
14 13 11 9 7 6 6 6 6 8 9 8 9 9 10 11 11 11 12 11 11 11 11 12 12 11 9 9 10 10 10 10 12 14 14 16 17 19 18 18 16 17 16
15 15 13 10 8 8 7 7 9 10 10 10 9 9 10 10 10 10 10 10 10 10 11 11 12 11 11 11 11 11 12 11 13 15 16 17 18 19 18 17 16 12 15
18 16 13 11 10 9 9 11 12 12 11 11 9 8 9 9 9 9 10 10 11 11 11 11 11 11 11 10 11 11 12 12 13 13 15 15 17 20 19 18 18 15 11
20 17 16 14 13 12 12 14 14 14 13 11 10 9 8 8 8 9 9 9 10 10 11 11 11 12 13 13 11 12 12 12 13 13 14 16 18 21 20 21 21 19 10
22 19 16 16 15 14 15 16 16 15 13 11 10 8 8 7 7 7 8 8 8 9 10 9 11 12 12 12 12 13 13 11 12 12 14 15 18 22 24 23 21 20 11
23 20 18 18 17 16 18 18 17 15 13 11 10 8 7 6 6 6 7 7 7 7 8 8 8 11 12 13 14 14 15 15 13 12 13 15 17 20 21 20 21 21 18
23 21 21 20 19 18 19 19 17 15 13 11 9 8 7 6 5 5 5 6 7 7 8 8 9 10 11 11 13 15 15 15 16 14 14 18 18 23 23 19 20 19 17
26 22 23 21 20 19 19 18 16 14 13 11 9 7 6 5 4 4 4 5 5 6 6 7 8 9 9 9 10 11 12 13 14 15 15 16 18 19 20 17 17 16 12
24 25 24 22 21 21 20 19 17 16 14 12 10 9 7 4 2 2 3 4 6 6 6 7 7 7 6 6 9 10 11 12 13 13 13 15 17 18 19 16 18 17 16
26 25 23 23 22 22 21 20 18 16 14 12 12 10 8 4 2 1 2 2 1 2 5 7 6 8 7 6 7 7 8 9 11 12 13 13 13 15 18 19 18 15 17
27 23 22 23 22 21 21 20 19 17 15 13 12 10 8 6 4 2 3 3 2 3 4 4 8 9 8 6 7 8 9 10 11 11 10 12 13 15 16 17 17 14 12
27 25 25 24 22 22 22 21 20 18 16 14 13 12 11 8 7 5 4 4 4 4 6 7 10 9 9 7 7 7 7 8 8 8 9 10 12 14 15 16 16 16 12
27 26 26 26 26 24 24 24 21 20 17 17 16 15 13 11 9 9 7 6 6 6 7 8 9 9 8 8 7 7 7 7 7 8 9 10 12 14 14 14 13 14 11
26 27 25 26 27 26 28 27 25 25 23 21 19 17 15 13 12 11 10 9 8 8 8 9 9 8 8 7 8 7 7 6 6 6 8 9 10 11 12 14 14 15 13
28 28 27 28 28 29 29 29 28 25 23 22 20 18 17 16 14 13 13 11 10 9 9 9 8 7 7 7 7 8 7 6 5 6 6 8 9 11 12 13 14 15 16
25 25 24 24 28 29 30 30 29 28 26 24 23 21 19 18 17 16 15 14 12 9 10 7 7 7 7 7 7 7 6 6 5 6 6 7 9 10 13 13 14 16 18
26 26 25 26 23 26 27 28 30 30 28 28 25 23 22 19 19 17 15 14 13 12 12 9 9 9 9 8 8 8 8 7 8 7 6 8 9 11 13 14 15 17 19
28 27 28 28 31 29 31 31 30 29 29 29 27 25 23 21 19 17 16 15 13 15 14 13 13 12 11 10 10 9 9 8 8 8 8 9 11 12 14 16 18 19 21
26 27 27 26 27 28 28 27 27 27 27 26 25 25 23 22 19 19 19 20 17 16 17 16 15 14 13 12 11 11 11 10 10 10 10 12 13 15 17 19 20 22 23
26 27 27 27 27 28 27 25 26 26 26 26 24 23 21 22 23 22 22 21 20 19 18 17 17 16 16 14 13 12 11 11 11 11 13 15 16 18 20 21 22 23 23
25 28 29 29 27 26 27 27 26 26 25 25 24 25 22 21 20 20 21 22 22 22 23 19 20 18 18 16 14 13 13 13 13 14 15 16 18 19 21 21 22 23 22
24 24 26 28 28 27 27 26 25 24 23 22 21 20 23 24 23 20 20 22 22 23 21 21 20 17 17 16 16 15 14 14 15 16 16 18 19 20 21 22 23 23 23
22 22 22 22 23 24 25 24 22 23 23 22 20 18 20 24 25 22 22 22 21 22 21 22 20 19 18 18 17 16 15 15 17 20 25 25 23 22 22 23 22 23 24
18 19 20 19 20 21 22 23 24 22 19 20 21 20 20 21 21 21 20 20 22 23 23 23 22 20 18 19 18 19 19 21 23 25 27 30 31 28 22 21 21 20 20
14 15 17 18 18 19 20 20 19 19 20 22 22 21 19 20 20 20 20 21 23 25 24 24 23 21 19 20 21 21 22 23 25 27 31 30 29 27 25 21 19 18 18
14 14 15 16 16 17 17 18 18 18 19 20 20 18 18 17 18 18 18 20 23 22 24 24 21 19 19 19 20 21 23 25 28 30 28 27 25 23 20 18 19 17 17
Wind_Direction
199 204 206 202 194 183 174 157 142 138 135 133 116 103 98 87 79 74 71 65 60 56 49 43 40 37 29 22 16 11 4 357 347 349 355 354 3 4 5 7 4 7 11
202 203 196 195 190 183 178 160 151 147 146 135 124 116 101 94 89 82 75 69 63 57 50 42 39 33 29 21 18 12 3 360 354 353 356 359 3 5 7 10 10 9 12
203 199 194 195 187 186 177 163 159 155 149 143 133 125 116 104 95 86 76 68 61 57 54 44 38 39 30 22 18 14 6 3 359 357 357 1 3 5 10 13 10 9 360
204 197 198 195 189 184 176 168 166 162 159 153 143 136 122 108 97 85 77 67 58 53 49 44 39 38 36 32 21 15 9 8 2 5 2 5 4 6 10 8 8 10 354
204 199 203 195 189 182 178 174 171 166 163 156 148 140 127 118 104 92 84 73 63 51 45 39 31 29 30 32 33 27 24 20 10 10 6 8 5 7 8 3 2 4 2
198 198 190 190 188 184 180 177 175 170 166 161 153 144 136 124 103 90 84 74 62 51 44 40 27 25 22 22 23 23 25 24 22 19 8 7 6 4 4 1 358 3 1
195 192 187 184 183 184 181 181 176 173 171 165 157 156 149 132 111 89 72 62 47 36 29 24 20 19 21 17 14 15 15 16 16 21 15 10 7 7 4 360 358 358 353
193 190 187 182 181 181 178 177 175 175 172 166 167 166 158 140 114 82 62 51 34 24 16 15 12 10 12 10 11 12 11 10 12 15 11 7 5 5 5 359 351 353 358
192 188 186 183 181 181 182 182 181 179 178 177 180 176 172 166 126 64 36 23 357 6 0 357 355 354 359 4 11 8 6 4 7 9 7 3 360 1 1 5 5 4 360
191 188 185 184 185 186 186 186 188 185 183 184 188 187 186 200 178 9 354 277 307 312 339 339 344 337 348 357 1 359 358 360 4 3 2 0 1 0 3 6 7 5 1
191 182 183 186 187 189 188 190 189 189 189 191 196 199 198 206 235 247 274 269 262 278 296 306 309 326 326 336 346 350 352 355 2 4 1 358 360 2 4 6 5 4 355
193 187 186 187 188 190 191 192 192 192 193 195 197 204 211 224 251 264 268 277 284 291 300 303 309 313 313 320 330 336 341 351 357 359 358 356 360 360 1 2 2 360 350
200 201 201 197 191 188 193 194 192 195 198 202 210 216 223 232 253 268 278 282 292 293 297 299 305 312 314 319 322 323 330 343 352 356 356 354 356 355 358 358 359 360 358
202 203 205 206 206 206 205 207 205 205 206 212 216 220 228 238 250 258 265 272 278 285 294 298 308 315 312 307 311 318 324 333 340 349 350 350 352 355 355 355 354 354 353
200 202 205 207 210 210 214 215 216 220 223 226 228 230 236 244 252 259 265 265 268 274 285 291 303 309 309 304 307 308 312 323 325 333 342 345 347 349 350 349 349 349 347
192 195 198 199 208 212 216 218 221 224 225 229 233 237 242 247 253 260 261 259 259 266 271 260 268 276 280 281 279 278 283 296 296 315 322 329 335 339 335 342 339 339 338
197 198 200 201 205 209 212 218 223 225 227 232 236 238 243 247 252 255 254 249 248 255 259 253 260 266 272 272 270 267 263 264 285 301 304 312 318 321 328 326 326 325 324
211 217 216 216 218 219 222 224 226 230 232 236 239 242 243 248 249 249 247 250 244 261 256 253 259 265 264 267 267 265 261 261 269 279 289 298 303 310 312 314 315 314 313
217 221 222 225 227 229 229 229 230 232 235 237 240 237 239 241 245 247 245 244 239 239 246 256 258 258 260 260 261 259 254 255 258 269 281 289 296 300 302 303 306 308 308
222 227 228 228 228 228 228 229 231 232 234 233 233 238 239 237 240 242 242 242 245 245 248 251 254 261 258 254 256 256 255 261 270 280 289 290 295 298 299 300 301 303 303
228 230 233 232 232 233 233 234 234 234 233 233 235 241 239 237 240 237 241 244 246 246 249 249 253 258 257 255 250 252 254 258 265 274 281 287 293 296 299 300 299 301 300
233 234 239 236 235 236 237 235 234 232 232 234 237 239 246 243 244 240 240 240 244 249 245 248 252 249 254 253 253 254 253 259 268 277 285 288 293 297 299 300 298 297 297
239 241 242 241 236 237 238 233 231 233 235 238 237 235 243 248 252 244 242 243 245 247 248 248 251 255 258 254 252 246 250 261 268 277 290 294 296 297 295 294 294 293 293
243 245 244 242 241 236 237 238 236 236 234 239 242 242 242 248 251 248 247 246 246 249 255 256 254 259 258 254 257 262 265 276 286 290 293 298 301 300 293 291 291 292 294
248 247 245 244 243 241 240 239 238 237 241 244 248 251 249 249 246 248 249 251 252 255 252 249 251 256 263 260 261 265 276 283 287 292 297 300 300 299 298 295 293 293 292
252 252 251 248 245 245 242 240 241 242 247 251 253 250 245 243 248 248 249 253 256 248 248 243 248 259 262 261 262 271 279 286 292 297 298 298 298 297 295 291 292 292 291
Height
1496 1499 1500 1500 1502 1503 1504 1505 1504 1506 1508 1511 1511 1510 1509 1508 1508 1508 1508 1507 1506 1506 1505 1503 1501 1500 1499 1497 1494 1493 1491 1488 1486 1483 1481 1477 1473 1467 1463 1459 1455 1449 1447
1493 1497 1497 1498 1500 1501 1502 1503 1504 1506 1510 1511 1511 1511 1510 1509 1510 1509 1509 1508 1507 1506 1506 1505 1502 1502 1500 1497 1495 1493 1490 1488 1485 1483 1481 1477 1472 1467 1465 1461 1457 1454 1449
1490 1493 1494 1495 1498 1499 1500 1502 1504 1507 1509 1510 1511 1511 1510 1511 1511 1510 1510 1509 1508 1506 1506 1505 1503 1501 1501 1499 1497 1494 1491 1489 1486 1484 1482 1478 1474 1468 1464 1461 1458 1454 1450
1486 1488 1490 1493 1496 1497 1499 1500 1503 1506 1509 1510 1510 1511 1511 1511 1511 1510 1510 1509 1508 1507 1506 1505 1503 1502 1500 1498 1497 1495 1492 1490 1487 1485 1482 1478 1473 1468 1465 1461 1458 1455 1450
1482 1485 1487 1490 1493 1495 1497 1500 1503 1506 1508 1509 1510 1511 1511 1511 1511 1510 1510 1509 1509 1508 1506 1505 1503 1501 1500 1498 1496 1494 1491 1490 1488 1485 1482 1479 1474 1468 1463 1462 1459 1456 1454
1477 1480 1484 1487 1489 1493 1495 1499 1502 1505 1507 1508 1509 1510 1511 1511 1511 1510 1509 1509 1508 1507 1506 1505 1503 1501 1499 1497 1496 1493 1491 1488 1486 1484 1483 1478 1475 1470 1467 1464 1461 1457 1454
1473 1477 1481 1484 1486 1490 1493 1498 1501 1504 1506 1507 1508 1510 1510 1511 1510 1509 1509 1508 1507 1507 1506 1504 1503 1501 1499 1497 1495 1492 1490 1488 1485 1483 1480 1477 1474 1470 1467 1464 1461 1459 1455
1468 1473 1477 1480 1484 1487 1492 1496 1500 1503 1505 1506 1507 1509 1509 1509 1509 1508 1508 1507 1507 1506 1505 1504 1502 1500 1498 1497 1495 1493 1491 1488 1485 1482 1480 1477 1474 1471 1468 1465 1462 1460 1456
1463 1469 1473 1476 1481 1486 1491 1495 1498 1501 1503 1505 1506 1507 1508 1507 1507 1507 1506 1506 1505 1505 1504 1502 1501 1499 1498 1496 1494 1492 1490 1487 1485 1482 1479 1476 1473 1470 1467 1464 1460 1458 1455
1459 1464 1468 1473 1479 1484 1488 1492 1496 1499 1501 1503 1504 1504 1505 1505 1505 1505 1504 1505 1505 1504 1502 1501 1500 1498 1496 1495 1493 1491 1489 1487 1484 1482 1479 1476 1474 1470 1466 1463 1460 1458 1456
1455 1461 1466 1471 1477 1482 1486 1490 1493 1496 1498 1500 1500 1501 1502 1502 1502 1503 1503 1502 1502 1502 1501 1500 1497 1496 1495 1493 1491 1489 1488 1485 1483 1481 1479 1476 1473 1470 1466 1463 1460 1458 1456
1453 1457 1462 1468 1474 1478 1483 1487 1490 1493 1495 1497 1498 1498 1498 1499 1499 1500 1500 1499 1499 1498 1498 1497 1495 1493 1492 1491 1489 1487 1486 1483 1482 1480 1478 1475 1472 1469 1466 1463 1460 1456 1454
1450 1455 1459 1464 1469 1474 1478 1482 1486 1489 1491 1492 1493 1494 1494 1495 1495 1495 1495 1495 1495 1495 1494 1493 1492 1491 1489 1487 1486 1485 1483 1481 1480 1478 1476 1473 1471 1468 1465 1463 1460 1458 1456
1447 1452 1458 1461 1465 1470 1473 1477 1480 1482 1484 1486 1487 1489 1489 1490 1491 1491 1491 1491 1491 1490 1490 1490 1489 1488 1486 1485 1483 1481 1480 1479 1477 1476 1474 1472 1470 1468 1465 1462 1459 1457 1455
1444 1449 1454 1458 1462 1466 1469 1472 1475 1478 1481 1482 1483 1484 1485 1485 1487 1487 1487 1487 1487 1487 1486 1486 1485 1484 1484 1482 1481 1479 1478 1476 1476 1474 1472 1471 1469 1467 1464 1461 1459 1456 1453
1440 1445 1450 1453 1457 1461 1464 1467 1470 1473 1476 1477 1478 1480 1480 1481 1482 1483 1483 1483 1483 1482 1482 1483 1484 1483 1482 1481 1479 1478 1476 1474 1473 1471 1470 1469 1467 1465 1462 1460 1458 1455 1451
1436 1439 1444 1448 1452 1455 1458 1461 1464 1467 1469 1471 1473 1474 1475 1476 1476 1477 1478 1478 1478 1479 1478 1479 1479 1479 1478 1477 1476 1475 1474 1472 1469 1468 1468 1467 1465 1463 1461 1458 1456 1453 1449
1432 1436 1439 1443 1446 1450 1453 1456 1459 1461 1463 1464 1466 1468 1469 1470 1471 1472 1472 1472 1473 1472 1473 1474 1474 1474 1474 1473 1472 1471 1470 1468 1467 1466 1465 1464 1462 1460 1458 1455 1453 1449 1445
1430 1433 1436 1440 1442 1445 1448 1451 1453 1455 1456 1458 1459 1460 1463 1464 1465 1466 1467 1466 1468 1469 1469 1469 1469 1469 1468 1468 1467 1466 1465 1464 1463 1462 1461 1459 1458 1455 1453 1450 1447 1443 1440
1427 1430 1433 1435 1437 1439 1441 1444 1446 1448 1450 1451 1452 1454 1456 1458 1457 1458 1459 1460 1461 1462 1463 1463 1463 1463 1462 1462 1462 1461 1460 1459 1459 1457 1456 1455 1453 1451 1448 1444 1441 1438 1434
1423 1425 1427 1430 1431 1433 1435 1437 1439 1441 1443 1444 1446 1448 1450 1451 1451 1453 1453 1453 1455 1456 1456 1457 1457 1457 1456 1456 1456 1456 1455 1455 1454 1453 1451 1449 1447 1444 1442 1438 1435 1432 1428
1418 1420 1421 1423 1425 1426 1428 1430 1432 1434 1437 1439 1441 1442 1443 1444 1445 1446 1447 1447 1448 1449 1450 1450 1451 1451 1450 1450 1450 1450 1450 1450 1449 1447 1446 1443 1440 1438 1435 1432 1429 1426 1423
1414 1416 1416 1417 1419 1420 1422 1424 1425 1427 1430 1432 1434 1436 1435 1436 1437 1438 1439 1440 1441 1442 1442 1443 1444 1444 1444 1444 1444 1444 1444 1444 1443 1440 1437 1435 1432 1430 1427 1424 1421 1419 1416
1410 1411 1412 1413 1414 1415 1417 1418 1420 1422 1424 1426 1427 1428 1429 1429 1429 1430 1432 1433 1434 1434 1435 1435 1436 1437 1437 1437 1437 1436 1436 1435 1434 1432 1429 1426 1423 1420 1418 1415 1412 1410 1407
1406 1407 1408 1409 1410 1411 1412 1413 1415 1416 1418 1419 1420 1421 1422 1422 1423 1424 1425 1426 1427 1427 1428 1428 1429 1430 1430 1430 1430 1430 1429 1429 1427 1425 1421 1417 1414 1411 1408 1406 1404 1402 1400
1403 1403 1404 1405 1405 1406 1407 1409 1410 1411 1412 1413 1413 1414 1415 1416 1417 1418 1419 1419 1420 1420 1420 1421 1422 1423 1424 1423 1424 1423 1423 1421 1419 1416 1413 1409 1406 1404 1401 1399 1397 1395 1393